Regional Weather Roundup
Issued by NWS Albany, NY

Home | Current Version | Previous Version | Text Only | Print | Product List | Glossary On
Versions: 1 2 3 4 5 6 7 8 9 10 11 12 13 14 15 16 17 18 19 20 21 22 23 24 25 26 27 28 29 30 31 32 33 34 35 36 37 38 39 40 41 42 43 44 45 46 47 48 49 50
000
ASUS41 KALY 250510
RWRALY

NEW YORK STATE HOURLY WEATHER ROUNDUP
NATIONAL WEATHER SERVICE ALBANY NY
100 AM EDT SAT MAR 25 2017

NOTE: "FAIR" INDICATES FEW OR NO CLOUDS BELOW 12,000 FEET WITH NO
SIGNIFICANT WEATHER AND/OR NO OBSTRUCTIONS TO VISIBILITY.

NYZ032-033-038>043-046>054-057>066-NYZ062>081-082-084-250600-
EAST


CITY           SKY/WX    TMP DP  RH WIND       PRES   REMARKS
ALBANY         CLOUDY    40  33  76 CALM      30.09S
GLENS FALLS    FOG       33  31  92 CALM      30.08S VSB 1
POUGHKEEPSIE   CLOUDY    34  30  85 CALM      30.08F
NEWBURGH       PTCLDY    45  36  70 CALM      30.09F
MONTGOMERY     CLOUDY    34  31  88 CALM      30.07F
WHITE PLAINS   CLOUDY    50  31  48 W5        30.08F
ISLIP          PTCLDY    46  38  73 SW10      30.10F
NEW YORK CITY  MOCLDY    54  33  45 SW9       30.10F
CENTRAL PARK   PTCLDY    53  33  46 W12       30.13F
$$

NYZ005>009-017-018-044>046-055-056-250600-
CENTRAL


CITY           SKY/WX    TMP DP  RH WIND       PRES   REMARKS
FULTON         CLOUDY    38  36  92 N7        30.12R FOG     WCI  33
SYRACUSE       DRIZZLE   39  38  96 NW6       30.10R WCI  35
ROME           CLOUDY    34  34 100 CALM      30.10R FOG
ELMIRA         CLOUDY    48  40  73 E14       30.05R
BINGHAMTON     LGT RAIN  42  38  85 SW5       30.04R
MONTICELLO     CLOUDY    36  36 100 NW3       30.08S
$$

NYZ026>034-041>043-087-250600-
NORTH


CITY           SKY/WX    TMP DP  RH WIND       PRES   REMARKS
WATERTOWN      LGT RAIN  34  34 100 NE9       30.13R FOG     WCI  27
FORT DRUM      NOT AVBL
MASSENA        CLOUDY    32  31  96 CALM      30.16R FOG
SARANAC LAKE   LGT SNOW  32  32 100 CALM      30.04S FOG
PLATTSBURGH    CLOUDY    33  31  92 CALM      30.12R FOG
$$

NYZ001>004-010>016-019>021-085-250600-
WEST


CITY           SKY/WX    TMP DP  RH WIND       PRES   REMARKS
NIAGARA FALLS  CLOUDY    44  38  79 NE6       30.12R
BUFFALO        CLOUDY    43  37  79 E7        30.11R
DUNKIRK        CLOUDY    41  39  93 N14       30.10R FOG
JAMESTOWN      CLOUDY    52  45  76 W5        30.05F
WELLSVILLE     CLOUDY    61  50  67 W7        30.07R
ROCHESTER      RAIN      41  38  89 NE7       30.12R FOG
PENN YAN       CLOUDY    42  37  82 NW5       30.11R
$$

             KEY
       WCI = WIND CHILL INDEX
       VSB = VISIBILITY
       HX  = HEAT INDEX
$$



USA.gov is the U.S. government's official web portal to all federal, state and local government web resources and services.